Regional Weather Roundup
Issued by NWS

Home | Current Version | Previous Version | Text Only | Print | Product List | Glossary On
Versions: 1 2 3 4 5 6 7 8 9 10 11 12 13 14 15 16 17 18 19 20 21 22 23 24 25 26 27 28 29 30 31 32 33 34 35 36 37 38 39 40 41 42 43 44 45 46 47 48 49 50
668
ASUS44 KFWD 030510
RWRTX
NORTH TEXAS HOURLY WEATHER ROUNDUP
NATIONAL WEATHER SERVICE FORT WORTH TX
1200 AM CDT TUE MAY 03 2016

NOTE: "FAIR" INDICATES FEW OR NO CLOUDS BELOW 12,000 FEET WITH NO
SIGNIFICANT WEATHER AND/OR OBSTRUCTIONS TO VISIBILITY.

TXZ118-119-030600-
DALLAS/FORT WORTH METROPLEX

CITY           SKY/WX    TMP DP  RH WIND       PRES   REMARKS
DFW AIRPORT    CLEAR     55  46  71 N3        30.11F
DALLAS LOVE    CLEAR     54  48  80 CALM      30.12S
FTW MEACHAM    CLEAR     55  48  77 NE3       30.12S
DAL-EXECUTIVE  CLEAR     51  46  83 NW3       30.11F
FTW-ALLIANCE   CLEAR     48  47  96 CALM      30.12F
FTW-NAS-JRB    CLEAR     57  47  69 CALM      30.13S
FTW-SPINKS     CLEAR     49  48  94 CALM      30.14F
ARLINGTON      CLEAR     52  48  86 N3        30.12F
GRAND PRAIRIE  CLEAR     55  46  69 CALM      30.14S
ADDISON        CLEAR     55  49  80 CALM      30.14S
MESQUITE       CLEAR     53  49  86 CALM      30.12S
LANCASTER      CLEAR     52  48  84 CALM      30.13S
$$

TXZ091>094-102>105-117-120-121-131>134-030600-
NORTH CENTRAL TEXAS

CITY           SKY/WX    TMP DP  RH WIND       PRES   REMARKS
SHRMAN/DENISON CLEAR     46  42  86 SW3       30.13S
GAINESVILLE    CLEAR     49  46  90 CALM      30.14F
BOWIE          CLEAR     48  47  95 CALM      30.12F
BRIDGEPORT     CLEAR     48  48 100 CALM      30.15S
DECATUR        CLEAR     54  44  67 SE3       30.13S
DENTON         CLEAR     48  47  96 W3        30.12F
MCKINNEY       CLEAR     49  49 100 CALM      30.12S
GREENVILLE     CLEAR     50  46  87 CALM      30.11F
ROCKWALL       CLEAR     53  48  84 N3        30.11S
TERRELL        CLEAR     55  47  74 N5        30.11F
WAXAHACHIE     CLEAR     51  48  89 CALM      30.13F
CLEBURNE       CLEAR     54  50  87 N6        30.14F
GRANBURY       CLEAR     50  48  90 CALM      30.14F
$$

TXZ083>090-098>101-113>116-127>130-139>142-154-155-030600-
WESTERN NORTH TEXAS

CITY           SKY/WX    TMP DP  RH WIND       PRES   REMARKS
WICHITA FALLS  CLEAR     51  46  83 SE3       30.13S
WF-KICKAPOO    CLEAR     55  46  74 SE5       30.14S
VERNON         CLEAR     53  41  64 E5        30.13
ABILENE        CLEAR     51  48  89 S6        30.14F
BRECKENRIDGE   CLEAR     54  47  75 SE6       30.12F
GRAHAM         CLEAR     49  48  97 CALM      30.12F
MINERAL WELLS  CLEAR     52  46  80 CALM      30.11F
STEPHENVILLE   CLEAR     54  47  78 CALM      30.16S
COMANCHE       CLEAR     55  49  81 CALM      30.14F
BROWNWOOD      CLEAR     50  48  93 CALM      30.14F
COLEMAN        CLEAR     50  48  90 CALM      30.15S
$$

TXZ143>147-156>162-174-175-030600-
CENTRAL TEXAS

CITY           SKY/WX    TMP DP  RH WIND       PRES   REMARKS
WACO           CLEAR     54  50  86 N6        30.12S
WACO-MCGREGOR  PTCLDY    54  52  93 NW7       30.12F
HILLSBORO      CLEAR     50  48  93 N6        30.12F
CORSICANA      CLEAR     55  50  83 N5        30.12S
MEXIA          PTCLDY    55  50  82 NW6       30.11R
HEARNE         CLOUDY    57  53  88 CALM      30.10F
CAMERON        MOCLDY    56  53  91 NW6       30.11
TEMPLE         MOCLDY    53  51  93 N3        30.12S
KILLEEN        NOT AVBL
KILLEEN-SKYLRK PTCLDY    54  52  93 NW5       30.12F
GATESVILLE     CLEAR     54  50  87 MISG      30.15S
HAMILTON       CLEAR     54  49  83 CALM      30.14F
LAMPASAS       MOCLDY    55  52  89 NW5       30.12S
$$

TXZ095>097-106>112-122>126-135>138-148>153-164>167-030600-
EAST TEXAS

CITY           SKY/WX    TMP DP  RH WIND       PRES   REMARKS
PARIS          CLEAR     50  41  71 NW7       30.09F
SULPHUR SPRNGS CLEAR     54  50  87 NW6       30.12F
MOUNT PLEASANT CLEAR     54  48  81 NW5       30.10F
GILMER         CLEAR     53  50  87 NW3       30.08F
MINEOLA        CLEAR     55  48  76 CALM      30.10F
TYLER          CLEAR     54  49  83 NW5       30.09S
LONGVIEW       CLEAR     56  50  80 NW10      30.07S
MARSHALL       CLEAR     55  50  83 N5        30.09S
ATHENS         CLEAR     54  48  82 N3        30.09
PALESTINE      CLEAR     55  53  94 NW6       30.10F
JACKSONVILLE   CLEAR     56  51  85 N6        30.09F
HENDERSON      CLEAR     55  51  86 N3        30.09S
CENTER         FAIR      61  56  85 NW7       30.05
NACOGDOCHES    PTCLDY    57  54  88 N7        30.06S
LUFKIN         MOCLDY    58  54  86 NW3       30.06R
$$

SUPPLEMENTAL OBSERVATIONS (CENTRAL)

CITY           SKY/WX    TMP DP  RH WIND       PRES   REMARKS
PAT MAYSE LAKE   N/A     48  46  93 N2          N/A
MCGREGOR         N/A     54  50  87 N3          N/A
TEMPLE           N/A     55  48  76 NW2         N/A
$$

SUPPLEMENTAL OBSERVATIONS (WEST)

CITY           SKY/WX    TMP DP  RH WIND       PRES   REMARKS
MILLERS CREEK    N/A     54  45  71 SE5         N/A
POSSUM KINGDOM   N/A     54  46  76 SE5         N/A
GRANBURY         N/A     52  46  82 CALM        N/A
HAMBY            N/A     48  45  87 SE3         N/A
IVIE RESERVOIR   N/A     52  48  87 CALM        N/A
COLORADO BEND    N/A     52  46  82 W1          N/A
$$

SUPPLEMENTAL OBSERVATIONS (EAST)

CITY           SKY/WX    TMP DP  RH WIND       PRES   REMARKS
CLARKSVILLE      N/A     52  46  82 NW3         N/A
GILMER           N/A     55  50  82 NW3         N/A
HENDERSON        N/A     55  50  82 N6          N/A
N SABINE NF      N/A     61  57  88 MISG        N/A
S SABINE NF      N/A     61  55  82 W3          N/A
$$

SUPPLEMENTAL OBSERVATIONS ARE A COLLECTION OF AUTOMATED INSTRUMENTS
THAT ARE MAINTAINED BY A VARIETY OF FEDERAL AND STATE AGENCIES.
CERTAIN ELEMENTS...SUCH AS HUMIDITY VALUES AND SUSTAINED WIND
SPEEDS...MAY BE APPROXIMATED.





USA.gov is the U.S. government's official web portal to all federal, state and local government web resources and services.